Regional Weather Roundup
Issued by NWS Sioux Falls, SD

Home | Current Version | Previous Version | Text Only | Print | Product List | Glossary On
Versions: 1 2 3 4 5 6 7 8 9 10 11 12 13 14 15 16 17 18 19 20 21 22 23 24 25 26 27 28 29 30 31 32 33 34 35 36 37 38 39 40 41 42 43 44 45 46 47 48 49 50
453
ASUS43 KFSD 251810
RWRFSD

WEATHER ROUNDUP FOR SE SOUTH DAKOTA/SW MINNESOTA/NW IOWA
NATIONAL WEATHER SERVICE SIOUX FALLS SD
1200 PM CST SAT FEB 25 2017

NOTE: "FAIR" INDICATES FEW OR NO CLOUDS BELOW 12,000 FEET WITH NO
SIGNIFICANT WEATHER AND OR OBSTRUCTIONS TO VISIBILITY.


SDZ038>040-050-052>070-251900-
SOUTHEAST SOUTH DAKOTA

CITY           SKY/WX    TMP DP  RH WIND       PRES   REMARKS
BROOKINGS      CLOUDY    29  18  63 SW15      29.93F WCI  18
CHAMBERLAIN    SUNNY     32  20  60 SW12      29.91F WCI  23
6HR MIN TEMP:  21; 6HR MAX TEMP:  32;

HURON          CLOUDY    33  16  49 S10G21    29.93F WCI  25
6HR MIN TEMP:  18; 6HR MAX TEMP:  33;

MADISON        FAIR      25  18  74 SW17      29.95F WCI  11
MITCHELL       PTSUNNY   29  16  58 SW15      29.97F WCI  18
6HR MIN TEMP:  20; 6HR MAX TEMP:  29;

SIOUX FALLS    CLOUDY    24  17  74 SW9       30.00F WCI  14
6HR MIN TEMP:  11; 6HR MAX TEMP:  24;

WINNER         FAIR      24  15  68 SW12      29.91F WCI  13
YANKTON        CLOUDY    25  12  58 S9        30.02F WCI  15
$$

MNZ071-072-080-081-089-090-097-098-251900-
SOUTHWEST MINNESOTA

CITY           SKY/WX    TMP DP  RH WIND       PRES   REMARKS
FAIRMONT       SUNNY     24  13  62 W10       30.01S WCI  14
JACKSON        SUNNY     23  14  68 W9        29.98F WCI  13
LUVERNE        CLOUDY    25  18  74 SW9       30.00F WCI  15
MARSHALL       PTSUNNY   35  15  44 W14G20    29.95F WCI  26
6HR MIN TEMP:  14; 6HR MAX TEMP:  35;

MONTEVIDEO     SUNNY     32  19  59 W9        29.95F WCI  24
PIPESTONE      CLOUDY    28  16  59 W12       29.95F WCI  18
REDWOOD FALLS  SUNNY     30  13  49 W12       29.96F WCI  20
TRACY          MOSUNNY   33  18  54 W10       29.96F WCI  25
WINDOM         SUNNY     27  18  69 SW9       29.97F WCI  17
WORTHINGTON    CLOUDY    24  17  74 SW12      29.98F WCI  13
$$

IAZ001>003-012>014-020>022-031-032-NEZ013-014-SDZ071-251900-
NORTHWEST IOWA

CITY           SKY/WX    TMP DP  RH WIND       PRES   REMARKS
CHEROKEE       CLOUDY    23  16  76 SW7       30.06S WCI  14
DENISON        PTSUNNY   23  16  74 SW6       30.07S WCI  16
ESTHERVILLE    SUNNY     22  14  71 W9        30.00F WCI  12
LE MARS        CLOUDY    25  16  68 SW9       30.06F WCI  15
SHELDON        CLOUDY    23  21  93 SW8       30.01S WCI  14
SIOUX CITY     CLOUDY    26  15  63 S8        30.08F WCI  18
6HR MIN TEMP:  12; 6HR MAX TEMP:  26;

SPENCER        PTSUNNY   23  16  74 W10       30.03S WCI  12
6HR MIN TEMP:   8; 6HR MAX TEMP:  23;

STORM LAKE       N/A     19  16  86 SW10      30.04F WCI   8
$$

ABBREVIATIONS USED IN REMARKS
   TC - TEMPERATURE IN CELSIUS
  WCI - WIND CHILL INDEX
   HX - HEAT INDEX
  VSB - VISIBILITY





USA.gov is the U.S. government's official web portal to all federal, state and local government web resources and services.